QPF
0.00 0.00 0.00 0.00 0.00 0.00 0.00 0.00 0.00 0.00 0.00 0.00 0.00 0.00 0.00 0.00 0.00 0.00 0.00 0.00 0.00 0.01 0.01 0.01 0.01 0.00 0.00 0.00 0.00 0.00 0.00 0.00 0.00 0.00 0.00 0.00 0.01 0.01 0.01 0.02 0.04 0.01 0.00
0.00 0.00 0.00 0.00 0.00 0.00 0.00 0.00 0.00 0.00 0.00 0.00 0.00 0.00 0.00 0.00 0.00 0.00 0.00 0.00 0.00 0.00 0.00 0.00 0.00 0.00 0.00 0.00 0.00 0.00 0.00 0.00 0.00 0.01 0.01 0.01 0.00 0.00 0.01 0.03 0.07 0.03 0.01
0.00 0.00 0.00 0.00 0.00 0.00 0.01 0.00 0.00 0.00 0.00 0.00 0.00 0.00 0.00 0.00 0.00 0.00 0.00 0.00 0.01 0.01 0.00 0.00 0.00 0.00 0.00 0.00 0.00 0.00 0.01 0.01 0.01 0.04 0.11 0.07 0.01 0.00 0.02 0.05 0.06 0.03 0.03
0.00 0.00 0.00 0.00 0.00 0.00 0.00 0.00 0.00 0.00 0.00 0.01 0.01 0.01 0.01 0.01 0.01 0.01 0.01 0.01 0.01 0.01 0.00 0.00 0.00 0.00 0.00 0.00 0.00 0.00 0.01 0.01 0.02 0.09 0.22 0.12 0.04 0.01 0.03 0.04 0.04 0.04 0.04
0.00 0.00 0.00 0.00 0.00 0.00 0.00 0.01 0.01 0.02 0.02 0.02 0.02 0.02 0.01 0.01 0.01 0.01 0.01 0.01 0.01 0.01 0.00 0.00 0.00 0.00 0.00 0.00 0.00 0.01 0.01 0.01 0.03 0.12 0.15 0.11 0.08 0.03 0.03 0.03 0.03 0.03 0.03
0.00 0.00 0.00 0.00 0.00 0.01 0.01 0.02 0.02 0.03 0.03 0.03 0.03 0.02 0.02 0.01 0.01 0.01 0.01 0.01 0.00 0.00 0.00 0.00 0.00 0.00 0.00 0.00 0.01 0.01 0.01 0.02 0.04 0.07 0.07 0.06 0.07 0.03 0.02 0.02 0.02 0.02 0.02
0.00 0.00 0.00 0.00 0.00 0.01 0.01 0.02 0.02 0.02 0.03 0.03 0.03 0.03 0.02 0.01 0.01 0.01 0.01 0.01 0.01 0.00 0.00 0.00 0.00 0.00 0.00 0.01 0.01 0.00 0.01 0.01 0.05 0.09 0.07 0.06 0.07 0.02 0.01 0.02 0.02 0.01 0.01
0.00 0.00 0.00 0.00 0.00 0.01 0.02 0.03 0.03 0.03 0.03 0.04 0.04 0.03 0.02 0.01 0.01 0.01 0.01 0.01 0.00 0.00 0.00 0.00 0.00 0.00 0.00 0.00 0.00 0.00 0.00 0.00 0.03 0.05 0.05 0.06 0.03 0.01 0.01 0.01 0.01 0.01 0.01
0.00 0.00 0.00 0.00 0.00 0.01 0.03 0.03 0.04 0.04 0.05 0.05 0.04 0.02 0.01 0.01 0.01 0.00 0.00 0.00 0.00 0.00 0.00 0.00 0.00 0.00 0.00 0.00 0.00 0.00 0.00 0.01 0.03 0.03 0.07 0.04 0.01 0.01 0.01 0.01 0.01 0.01 0.01
0.00 0.00 0.00 0.00 0.00 0.00 0.00 0.02 0.03 0.06 0.07 0.05 0.03 0.01 0.01 0.00 0.00 0.00 0.00 0.00 0.00 0.00 0.00 0.00 0.00 0.00 0.00 0.00 0.00 0.00 0.00 0.00 0.02 0.05 0.07 0.04 0.01 0.01 0.01 0.01 0.00 0.00 0.00
0.00 0.00 0.00 0.00 0.00 0.00 0.00 0.01 0.02 0.05 0.05 0.03 0.01 0.01 0.00 0.00 0.00 0.00 0.00 0.00 0.00 0.00 0.00 0.00 0.00 0.00 0.00 0.00 0.00 0.00 0.00 0.00 0.04 0.09 0.08 0.02 0.00 0.00 0.01 0.01 0.01 0.00 0.00
0.00 0.00 0.00 0.00 0.00 0.00 0.00 0.00 0.01 0.01 0.01 0.01 0.01 0.00 0.00 0.01 0.02 0.01 0.01 0.00 0.00 0.00 0.00 0.00 0.00 0.00 0.00 0.00 0.00 0.00 0.00 0.01 0.06 0.12 0.11 0.03 0.01 0.00 0.01 0.01 0.01 0.00 0.00
0.00 0.00 0.00 0.00 0.00 0.00 0.01 0.01 0.02 0.03 0.03 0.04 0.05 0.02 0.03 0.03 0.01 0.01 0.01 0.00 0.00 0.00 0.00 0.01 0.00 0.00 0.00 0.00 0.00 0.00 0.01 0.01 0.02 0.06 0.07 0.02 0.01 0.01 0.01 0.01 0.01 0.00 0.00
0.00 0.00 0.00 0.00 0.00 0.00 0.01 0.02 0.02 0.03 0.03 0.04 0.05 0.03 0.04 0.03 0.01 0.01 0.02 0.00 0.00 0.00 0.01 0.02 0.01 0.00 0.00 0.00 0.00 0.00 0.01 0.00 0.01 0.02 0.03 0.02 0.01 0.01 0.01 0.01 0.01 0.00 0.00
0.00 0.00 0.00 0.00 0.00 0.01 0.04 0.03 0.02 0.02 0.02 0.04 0.05 0.04 0.03 0.02 0.01 0.01 0.00 0.01 0.00 0.01 0.01 0.01 0.01 0.00 0.00 0.00 0.00 0.00 0.01 0.00 0.00 0.02 0.04 0.02 0.02 0.01 0.01 0.01 0.01 0.01 0.00
0.00 0.00 0.00 0.00 0.00 0.01 0.02 0.02 0.02 0.01 0.03 0.04 0.04 0.03 0.02 0.02 0.02 0.02 0.02 0.03 0.03 0.03 0.04 0.03 0.02 0.02 0.01 0.00 0.00 0.00 0.01 0.01 0.01 0.02 0.03 0.02 0.02 0.02 0.02 0.02 0.02 0.01 0.01
0.00 0.00 0.00 0.00 0.00 0.01 0.02 0.02 0.02 0.01 0.01 0.03 0.04 0.04 0.03 0.02 0.04 0.03 0.04 0.05 0.05 0.05 0.05 0.04 0.04 0.03 0.02 0.02 0.01 0.01 0.01 0.01 0.02 0.03 0.05 0.06 0.04 0.03 0.03 0.03 0.03 0.02 0.02
0.00 0.00 0.00 0.00 0.00 0.01 0.02 0.02 0.01 0.01 0.03 0.02 0.03 0.05 0.04 0.04 0.05 0.06 0.06 0.07 0.07 0.08 0.09 0.09 0.08 0.07 0.06 0.05 0.05 0.04 0.03 0.03 0.04 0.07 0.11 0.12 0.11 0.10 0.06 0.03 0.03 0.02 0.01
0.00 0.00 0.00 0.00 0.00 0.01 0.02 0.02 0.02 0.02 0.03 0.03 0.04 0.06 0.06 0.06 0.06 0.07 0.08 0.09 0.09 0.11 0.13 0.10 0.12 0.13 0.15 0.14 0.12 0.09 0.06 0.07 0.07 0.07 0.08 0.08 0.09 0.10 0.09 0.06 0.03 0.02 0.01
0.00 0.00 0.00 0.00 0.01 0.02 0.02 0.03 0.04 0.04 0.04 0.05 0.06 0.06 0.06 0.07 0.08 0.10 0.10 0.11 0.13 0.16 0.17 0.16 0.16 0.15 0.17 0.18 0.12 0.12 0.10 0.10 0.10 0.10 0.08 0.07 0.06 0.05 0.06 0.06 0.04 0.02 0.02
0.02 0.02 0.02 0.02 0.02 0.03 0.04 0.05 0.06 0.07 0.07 0.07 0.08 0.07 0.07 0.09 0.12 0.14 0.17 0.19 0.21 0.19 0.18 0.17 0.18 0.20 0.22 0.23 0.22 0.18 0.13 0.10 0.09 0.09 0.08 0.09 0.08 0.06 0.04 0.05 0.04 0.03 0.02
0.04 0.03 0.03 0.03 0.04 0.04 0.06 0.07 0.08 0.09 0.10 0.10 0.10 0.11 0.10 0.12 0.15 0.17 0.19 0.21 0.22 0.20 0.18 0.20 0.23 0.26 0.26 0.26 0.27 0.27 0.20 0.12 0.08 0.06 0.05 0.06 0.06 0.06 0.05 0.04 0.04 0.03 0.03
0.05 0.05 0.05 0.06 0.07 0.08 0.09 0.10 0.11 0.15 0.14 0.13 0.14 0.15 0.14 0.15 0.18 0.19 0.21 0.22 0.21 0.20 0.20 0.23 0.26 0.29 0.30 0.30 0.28 0.29 0.28 0.26 0.17 0.09 0.05 0.03 0.03 0.03 0.04 0.03 0.03 0.03 0.03
0.06 0.07 0.08 0.07 0.08 0.11 0.11 0.12 0.14 0.17 0.17 0.20 0.22 0.24 0.23 0.22 0.23 0.23 0.22 0.20 0.18 0.21 0.25 0.28 0.29 0.31 0.33 0.30 0.24 0.21 0.20 0.20 0.18 0.11 0.06 0.03 0.02 0.02 0.02 0.02 0.02 0.02 0.01
0.07 0.08 0.11 0.11 0.12 0.12 0.13 0.17 0.19 0.21 0.22 0.27 0.27 0.27 0.29 0.32 0.31 0.27 0.24 0.22 0.20 0.18 0.18 0.19 0.24 0.26 0.23 0.18 0.16 0.13 0.10 0.08 0.08 0.07 0.06 0.03 0.02 0.01 0.01 0.01 0.01 0.01 0.01
0.06 0.09 0.12 0.12 0.13 0.15 0.15 0.19 0.25 0.30 0.31 0.30 0.29 0.29 0.31 0.32 0.30 0.27 0.24 0.21 0.18 0.15 0.13 0.12 0.13 0.12 0.11 0.10 0.10 0.08 0.06 0.05 0.05 0.06 0.06 0.04 0.02 0.01 0.01 0.01 0.01 0.01 0.01
MSLP
1008.80 1009.01 1009.48 1010.17 1010.97 1011.77 1012.48 1013.03 1013.41 1013.66 1013.83 1014.00 1014.22 1014.52 1014.89 1015.29 1015.68 1016.00 1016.24 1016.38 1016.46 1016.50 1016.56 1016.66 1016.81 1016.99 1017.17 1017.32 1017.41 1017.44 1017.42 1017.38 1017.36 1017.39 1017.50 1017.67 1017.90 1018.15 1018.40 1018.61 1018.78 1018.91 1019.03
1008.76 1009.06 1009.60 1010.34 1011.16 1011.96 1012.65 1013.16 1013.51 1013.74 1013.91 1014.10 1014.37 1014.73 1015.18 1015.65 1016.10 1016.46 1016.70 1016.82 1016.86 1016.86 1016.87 1016.93 1017.05 1017.21 1017.38 1017.53 1017.61 1017.64 1017.62 1017.58 1017.57 1017.61 1017.74 1017.93 1018.18 1018.45 1018.71 1018.93 1019.10 1019.23 1019.33
1008.59 1008.98 1009.60 1010.39 1011.24 1012.06 1012.75 1013.26 1013.61 1013.84 1014.02 1014.24 1014.54 1014.94 1015.42 1015.92 1016.38 1016.74 1016.97 1017.08 1017.10 1017.08 1017.08 1017.13 1017.23 1017.38 1017.54 1017.66 1017.73 1017.75 1017.71 1017.67 1017.66 1017.72 1017.87 1018.09 1018.37 1018.66 1018.93 1019.16 1019.34 1019.48 1019.59
1008.33 1008.82 1009.52 1010.37 1011.27 1012.11 1012.83 1013.37 1013.74 1014.00 1014.21 1014.45 1014.77 1015.18 1015.65 1016.14 1016.58 1016.91 1017.13 1017.23 1017.25 1017.24 1017.26 1017.32 1017.43 1017.57 1017.72 1017.81 1017.85 1017.83 1017.78 1017.72 1017.72 1017.79 1017.95 1018.20 1018.49 1018.80 1019.09 1019.33 1019.52 1019.67 1019.80
1008.09 1008.67 1009.44 1010.34 1011.29 1012.18 1012.93 1013.52 1013.94 1014.24 1014.48 1014.75 1015.07 1015.46 1015.90 1016.35 1016.74 1017.04 1017.24 1017.34 1017.38 1017.42 1017.48 1017.58 1017.72 1017.87 1017.99 1018.05 1018.05 1017.99 1017.89 1017.81 1017.80 1017.87 1018.05 1018.31 1018.62 1018.93 1019.23 1019.47 1019.67 1019.83 1019.98
1007.94 1008.59 1009.42 1010.38 1011.36 1012.29 1013.08 1013.72 1014.19 1014.54 1014.83 1015.12 1015.44 1015.81 1016.20 1016.58 1016.92 1017.18 1017.36 1017.48 1017.57 1017.66 1017.79 1017.95 1018.12 1018.28 1018.38 1018.41 1018.35 1018.24 1018.10 1017.99 1017.96 1018.03 1018.21 1018.48 1018.79 1019.11 1019.40 1019.64 1019.83 1019.99 1020.15
1007.94 1008.65 1009.52 1010.50 1011.50 1012.44 1013.26 1013.93 1014.46 1014.86 1015.20 1015.51 1015.84 1016.18 1016.53 1016.85 1017.14 1017.36 1017.53 1017.67 1017.81 1017.97 1018.17 1018.39 1018.60 1018.77 1018.85 1018.84 1018.73 1018.56 1018.37 1018.24 1018.19 1018.26 1018.45 1018.72 1019.03 1019.34 1019.62 1019.84 1020.01 1020.17 1020.32
1008.08 1008.83 1009.72 1010.69 1011.68 1012.61 1013.43 1014.12 1014.67 1015.12 1015.50 1015.85 1016.19 1016.52 1016.83 1017.11 1017.35 1017.55 1017.72 1017.88 1018.07 1018.29 1018.55 1018.82 1019.06 1019.23 1019.29 1019.24 1019.08 1018.86 1018.64 1018.48 1018.42 1018.51 1018.71 1019.00 1019.32 1019.63 1019.89 1020.09 1020.24 1020.37 1020.51
1008.32 1009.09 1009.97 1010.92 1011.85 1012.74 1013.52 1014.19 1014.76 1015.23 1015.65 1016.03 1016.39 1016.73 1017.03 1017.29 1017.51 1017.68 1017.85 1018.03 1018.25 1018.52 1018.82 1019.12 1019.37 1019.53 1019.57 1019.47 1019.27 1019.01 1018.77 1018.61 1018.57 1018.68 1018.92 1019.24 1019.59 1019.91 1020.17 1020.37 1020.50 1020.60 1020.71
1008.59 1009.37 1010.22 1011.10 1011.96 1012.77 1013.48 1014.11 1014.65 1015.14 1015.59 1016.00 1016.40 1016.76 1017.07 1017.33 1017.53 1017.70 1017.87 1018.05 1018.28 1018.57 1018.88 1019.18 1019.43 1019.57 1019.57 1019.44 1019.22 1018.95 1018.70 1018.56 1018.55 1018.71 1019.00 1019.37 1019.77 1020.13 1020.42 1020.62 1020.75 1020.84 1020.92
1008.80 1009.57 1010.39 1011.20 1011.97 1012.67 1013.30 1013.85 1014.36 1014.84 1015.30 1015.75 1016.18 1016.57 1016.91 1017.19 1017.40 1017.57 1017.73 1017.91 1018.14 1018.41 1018.70 1018.98 1019.20 1019.31 1019.29 1019.14 1018.90 1018.63 1018.40 1018.29 1018.33 1018.55 1018.90 1019.35 1019.81 1020.23 1020.57 1020.81 1020.96 1021.04 1021.12
1008.88 1009.65 1010.42 1011.17 1011.84 1012.44 1012.97 1013.45 1013.91 1014.36 1014.83 1015.30 1015.77 1016.20 1016.57 1016.88 1017.11 1017.29 1017.45 1017.62 1017.83 1018.07 1018.33 1018.57 1018.76 1018.83 1018.78 1018.62 1018.38 1018.13 1017.93 1017.86 1017.95 1018.23 1018.65 1019.16 1019.70 1020.20 1020.60 1020.90 1021.09 1021.20 1021.29
1008.80 1009.57 1010.32 1011.00 1011.61 1012.12 1012.57 1012.98 1013.38 1013.81 1014.26 1014.75 1015.24 1015.70 1016.11 1016.45 1016.71 1016.92 1017.08 1017.25 1017.43 1017.64 1017.87 1018.07 1018.21 1018.26 1018.20 1018.03 1017.81 1017.58 1017.42 1017.38 1017.52 1017.83 1018.30 1018.87 1019.47 1020.04 1020.52 1020.88 1021.13 1021.29 1021.40
1008.54 1009.32 1010.06 1010.73 1011.29 1011.76 1012.16 1012.52 1012.88 1013.27 1013.70 1014.18 1014.68 1015.17 1015.61 1015.99 1016.28 1016.52 1016.70 1016.88 1017.06 1017.24 1017.44 1017.61 1017.73 1017.76 1017.70 1017.55 1017.35 1017.15 1017.02 1017.01 1017.16 1017.49 1017.97 1018.56 1019.19 1019.80 1020.34 1020.77 1021.09 1021.30 1021.45
1008.13 1008.93 1009.70 1010.37 1010.94 1011.41 1011.79 1012.13 1012.46 1012.83 1013.24 1013.70 1014.19 1014.68 1015.14 1015.55 1015.89 1016.16 1016.39 1016.59 1016.78 1016.97 1017.15 1017.31 1017.43 1017.47 1017.42 1017.30 1017.14 1016.97 1016.86 1016.86 1017.00 1017.30 1017.76 1018.32 1018.94 1019.55 1020.12 1020.60 1020.96 1021.24 1021.43
1007.62 1008.45 1009.25 1009.97 1010.58 1011.09 1011.50 1011.86 1012.19 1012.54 1012.93 1013.36 1013.82 1014.30 1014.76 1015.19 1015.57 1015.89 1016.17 1016.41 1016.64 1016.86 1017.06 1017.23 1017.36 1017.43 1017.43 1017.35 1017.24 1017.11 1017.01 1017.00 1017.11 1017.35 1017.73 1018.21 1018.77 1019.34 1019.89 1020.38 1020.79 1021.10 1021.34
1007.07 1007.93 1008.77 1009.55 1010.23 1010.81 1011.29 1011.69 1012.05 1012.39 1012.75 1013.14 1013.56 1014.01 1014.47 1014.91 1015.32 1015.70 1016.04 1016.34 1016.62 1016.87 1017.11 1017.31 1017.48 1017.59 1017.64 1017.63 1017.57 1017.49 1017.42 1017.40 1017.45 1017.61 1017.88 1018.25 1018.70 1019.19 1019.69 1020.16 1020.57 1020.92 1021.20
1006.59 1007.44 1008.31 1009.14 1009.90 1010.56 1011.11 1011.58 1011.97 1012.32 1012.65 1013.00 1013.38 1013.79 1014.23 1014.68 1015.12 1015.54 1015.94 1016.31 1016.64 1016.94 1017.21 1017.46 1017.66 1017.83 1017.94 1018.01 1018.02 1018.00 1017.96 1017.94 1017.95 1018.02 1018.17 1018.41 1018.72 1019.09 1019.51 1019.93 1020.33 1020.70 1021.02
1006.25 1007.07 1007.93 1008.78 1009.58 1010.31 1010.93 1011.45 1011.88 1012.25 1012.57 1012.89 1013.22 1013.60 1014.01 1014.46 1014.92 1015.38 1015.83 1016.25 1016.62 1016.96 1017.26 1017.53 1017.78 1017.99 1018.17 1018.31 1018.40 1018.46 1018.47 1018.46 1018.45 1018.45 1018.49 1018.60 1018.77 1019.02 1019.33 1019.68 1020.06 1020.44 1020.79
1006.16 1006.89 1007.68 1008.50 1009.30 1010.05 1010.72 1011.28 1011.75 1012.13 1012.44 1012.74 1013.05 1013.39 1013.79 1014.23 1014.71 1015.20 1015.68 1016.12 1016.52 1016.87 1017.18 1017.46 1017.72 1017.96 1018.19 1018.41 1018.59 1018.73 1018.82 1018.85 1018.84 1018.80 1018.76 1018.75 1018.80 1018.92 1019.13 1019.42 1019.76 1020.14 1020.53
1006.38 1006.96 1007.63 1008.35 1009.10 1009.82 1010.48 1011.06 1011.55 1011.94 1012.26 1012.55 1012.85 1013.18 1013.57 1014.02 1014.52 1015.02 1015.51 1015.96 1016.35 1016.68 1016.96 1017.21 1017.46 1017.71 1017.98 1018.26 1018.52 1018.76 1018.93 1019.03 1019.05 1019.00 1018.91 1018.82 1018.77 1018.79 1018.90 1019.12 1019.44 1019.82 1020.24
1006.96 1007.35 1007.84 1008.40 1009.02 1009.66 1010.28 1010.84 1011.32 1011.72 1012.05 1012.36 1012.67 1013.02 1013.43 1013.89 1014.39 1014.90 1015.39 1015.82 1016.17 1016.45 1016.68 1016.88 1017.08 1017.31 1017.60 1017.92 1018.26 1018.58 1018.84 1019.02 1019.09 1019.06 1018.96 1018.82 1018.69 1018.62 1018.66 1018.82 1019.10 1019.48 1019.94
1007.90 1008.08 1008.34 1008.71 1009.16 1009.66 1010.18 1010.69 1011.15 1011.55 1011.91 1012.25 1012.60 1012.99 1013.43 1013.92 1014.44 1014.95 1015.42 1015.81 1016.11 1016.32 1016.46 1016.58 1016.72 1016.92 1017.19 1017.53 1017.92 1018.32 1018.66 1018.92 1019.06 1019.06 1018.96 1018.79 1018.61 1018.48 1018.44 1018.54 1018.79 1019.17 1019.65
1009.14 1009.11 1009.15 1009.30 1009.56 1009.91 1010.31 1010.73 1011.16 1011.56 1011.95 1012.34 1012.74 1013.18 1013.67 1014.20 1014.74 1015.25 1015.69 1016.04 1016.27 1016.40 1016.46 1016.50 1016.57 1016.71 1016.95 1017.29 1017.71 1018.15 1018.56 1018.88 1019.07 1019.11 1019.02 1018.83 1018.61 1018.42 1018.32 1018.36 1018.56 1018.92 1019.40
1010.59 1010.38 1010.24 1010.20 1010.27 1010.45 1010.73 1011.07 1011.44 1011.84 1012.26 1012.69 1013.16 1013.66 1014.21 1014.77 1015.33 1015.84 1016.26 1016.56 1016.74 1016.80 1016.79 1016.75 1016.74 1016.82 1017.03 1017.35 1017.77 1018.23 1018.68 1019.03 1019.26 1019.32 1019.23 1019.02 1018.76 1018.51 1018.35 1018.32 1018.47 1018.78 1019.23
1012.12 1011.82 1011.54 1011.36 1011.28 1011.33 1011.49 1011.75 1012.08 1012.46 1012.89 1013.37 1013.89 1014.45 1015.04 1015.64 1016.21 1016.72 1017.12 1017.39 1017.52 1017.53 1017.46 1017.36 1017.30 1017.33 1017.49 1017.79 1018.18 1018.64 1019.08 1019.44 1019.67 1019.74 1019.64 1019.41 1019.11 1018.81 1018.58 1018.48 1018.54 1018.78 1019.17
Thickness
5824 5817 5810 5806 5801 5797 5792 5788 5785 5782 5780 5777 5775 5773 5771 5769 5768 5766 5764 5763 5761 5760 5759 5758 5757 5756 5755 5754 5754 5753 5752 5751 5751 5750 5749 5747 5745 5743 5742 5741 5741 5738 5737
5826 5815 5808 5804 5799 5794 5790 5786 5782 5779 5776 5774 5772 5769 5767 5766 5764 5762 5761 5759 5758 5756 5755 5754 5753 5752 5752 5751 5750 5749 5748 5748 5747 5746 5745 5743 5741 5740 5739 5739 5738 5735 5734
5822 5813 5806 5802 5797 5792 5787 5783 5779 5776 5773 5771 5768 5766 5764 5762 5760 5758 5757 5755 5754 5753 5752 5751 5750 5749 5748 5747 5746 5746 5745 5744 5743 5742 5742 5741 5738 5736 5736 5735 5734 5732 5730
5819 5811 5805 5799 5794 5789 5784 5780 5776 5773 5770 5767 5765 5762 5760 5759 5757 5755 5753 5752 5751 5750 5749 5748 5747 5746 5745 5744 5743 5742 5742 5741 5741 5740 5740 5738 5736 5733 5732 5731 5730 5728 5727
5817 5810 5801 5796 5791 5786 5781 5777 5774 5770 5767 5764 5762 5759 5757 5756 5754 5752 5751 5749 5748 5747 5746 5745 5744 5743 5742 5741 5740 5740 5739 5739 5739 5738 5738 5736 5733 5730 5729 5728 5726 5725 5723
5815 5806 5797 5793 5788 5783 5778 5774 5771 5768 5765 5762 5759 5757 5755 5753 5751 5750 5748 5746 5745 5744 5743 5742 5741 5740 5739 5739 5738 5737 5737 5737 5737 5738 5737 5734 5730 5727 5726 5724 5723 5721 5719
5813 5802 5793 5788 5784 5780 5775 5771 5768 5765 5762 5760 5757 5755 5753 5751 5749 5748 5746 5744 5743 5742 5741 5740 5739 5738 5737 5736 5735 5735 5735 5735 5735 5736 5735 5732 5728 5725 5723 5721 5719 5717 5716
5811 5799 5788 5784 5781 5776 5772 5768 5765 5763 5760 5758 5755 5753 5751 5749 5747 5745 5744 5742 5741 5740 5739 5738 5737 5736 5735 5735 5734 5733 5733 5732 5735 5735 5733 5729 5725 5722 5719 5717 5715 5714 5712
5808 5796 5787 5781 5777 5773 5769 5766 5763 5761 5758 5756 5753 5751 5749 5747 5746 5744 5742 5741 5740 5738 5737 5737 5736 5735 5734 5733 5732 5732 5732 5731 5731 5732 5730 5725 5722 5719 5716 5714 5712 5710 5708
5805 5794 5787 5781 5776 5771 5766 5763 5760 5759 5756 5754 5752 5750 5748 5746 5745 5743 5741 5740 5738 5737 5737 5736 5735 5734 5733 5732 5732 5731 5731 5730 5731 5731 5727 5722 5720 5717 5713 5711 5709 5707 5705
5800 5792 5787 5782 5776 5772 5767 5761 5758 5757 5755 5753 5750 5748 5747 5746 5745 5743 5742 5739 5738 5737 5736 5735 5734 5734 5732 5732 5731 5730 5730 5730 5731 5729 5725 5721 5719 5715 5711 5708 5706 5704 5702
5794 5791 5788 5784 5778 5775 5770 5761 5758 5757 5754 5753 5751 5749 5748 5749 5748 5747 5743 5740 5738 5737 5736 5735 5734 5734 5733 5732 5731 5730 5729 5731 5730 5728 5724 5721 5717 5713 5709 5706 5704 5702 5700
5795 5791 5790 5786 5781 5778 5773 5764 5762 5760 5756 5754 5753 5751 5750 5750 5750 5747 5743 5740 5738 5737 5736 5735 5734 5734 5735 5736 5734 5731 5731 5732 5731 5728 5722 5719 5716 5711 5707 5704 5702 5700 5698
5796 5792 5791 5787 5782 5780 5775 5769 5766 5764 5759 5758 5755 5752 5752 5751 5751 5750 5746 5743 5742 5740 5739 5738 5737 5738 5738 5738 5736 5735 5734 5733 5731 5726 5720 5717 5714 5710 5706 5703 5700 5698 5695
5797 5794 5792 5789 5783 5780 5776 5771 5768 5766 5763 5761 5758 5754 5753 5752 5751 5751 5749 5747 5746 5744 5742 5740 5740 5740 5738 5737 5735 5734 5733 5732 5729 5726 5719 5715 5713 5709 5705 5701 5698 5696 5693
5798 5794 5793 5789 5783 5779 5775 5772 5770 5768 5765 5763 5760 5756 5754 5752 5751 5750 5748 5746 5744 5743 5741 5740 5739 5737 5736 5734 5733 5732 5730 5729 5726 5723 5718 5714 5711 5708 5704 5700 5696 5693 5690
5798 5795 5791 5788 5783 5778 5774 5770 5769 5768 5765 5763 5761 5758 5754 5752 5750 5748 5746 5743 5741 5740 5738 5736 5735 5733 5732 5731 5730 5728 5727 5724 5722 5719 5715 5710 5707 5704 5701 5698 5694 5691 5688
5800 5794 5790 5788 5782 5777 5773 5770 5769 5767 5766 5763 5761 5758 5754 5751 5749 5746 5743 5741 5739 5736 5734 5731 5730 5727 5725 5724 5724 5723 5722 5719 5717 5713 5711 5707 5704 5701 5696 5694 5690 5687 5684
5799 5793 5787 5785 5781 5775 5771 5768 5767 5765 5764 5762 5760 5756 5753 5749 5746 5743 5740 5738 5736 5733 5730 5727 5726 5722 5718 5716 5716 5716 5715 5712 5709 5708 5705 5703 5701 5697 5692 5688 5686 5683 5680
5795 5790 5785 5781 5778 5773 5769 5765 5763 5762 5761 5759 5757 5754 5750 5747 5743 5740 5737 5735 5733 5729 5725 5722 5719 5717 5713 5710 5709 5707 5706 5704 5701 5700 5698 5696 5695 5692 5688 5684 5680 5677 5674
5786 5782 5779 5775 5773 5769 5765 5760 5756 5754 5754 5753 5752 5750 5746 5743 5739 5736 5734 5732 5729 5724 5721 5717 5714 5710 5706 5704 5698 5694 5694 5694 5693 5692 5691 5689 5687 5685 5682 5678 5674 5671 5667
5776 5774 5772 5769 5768 5765 5763 5759 5756 5753 5751 5751 5749 5746 5743 5739 5735 5732 5729 5727 5724 5719 5716 5712 5708 5704 5700 5696 5691 5685 5679 5680 5682 5684 5683 5681 5680 5677 5675 5671 5668 5664 5660
5764 5764 5765 5763 5763 5761 5760 5757 5753 5750 5747 5745 5742 5740 5737 5733 5729 5725 5723 5721 5718 5715 5710 5706 5704 5700 5693 5690 5689 5683 5675 5673 5674 5673 5674 5673 5671 5669 5667 5664 5661 5656 5652
5753 5755 5756 5756 5755 5755 5754 5751 5746 5741 5737 5737 5735 5732 5729 5726 5721 5719 5715 5712 5711 5709 5702 5698 5697 5695 5691 5686 5683 5682 5677 5675 5668 5663 5663 5664 5662 5660 5657 5655 5652 5647 5643
5741 5745 5746 5746 5746 5746 5746 5744 5740 5735 5733 5730 5727 5723 5718 5715 5711 5709 5705 5701 5699 5697 5695 5692 5689 5687 5685 5681 5677 5673 5669 5666 5664 5659 5654 5652 5651 5650 5648 5645 5641 5636 5633
5727 5731 5732 5732 5733 5735 5734 5733 5730 5727 5723 5719 5715 5711 5706 5700 5696 5695 5693 5688 5686 5684 5683 5681 5678 5675 5673 5671 5668 5664 5660 5657 5654 5651 5647 5642 5640 5639 5637 5633 5629 5624 5620